Location: Unspecified
(0.0000°N, 0.0000°E)
Time: 19:04:23
(UTC+00:00)

Kosmos-2172 - Visible Passes

Search period start: 26 May 2024 00:00
Search period end: 05 June 2024 00:00
Orbit: 944 x 1014 km, 83.0° (Epoch: 26 May)

Date Brightness Start Highest point End Pass type
(mag) Time Alt. Az. Time Alt. Az. Time Alt. Az.
26 May 5.0 20:08:26 10° N 20:14:34 78° WNW 20:14:34 78° WNW visible
27 May 6.3 18:51:55 10° NE 18:56:03 18° E 18:57:00 18° E visible
27 May 6.3 20:35:33 10° NNW 20:41:12 35° W 20:41:48 34° WSW visible
28 May 5.4 19:16:38 10° NNE 19:22:32 41° E 19:24:17 34° ESE visible
28 May 7.4 21:04:14 10° WNW 21:07:38 15° W 21:09:05 14° WSW visible
29 May 4.9 19:42:39 10° N 19:48:59 88° W 19:51:36 38° S visible
30 May 6.5 18:26:39 10° NE 18:30:16 16° E 18:33:51 10° ESE visible
30 May 6.1 20:09:37 10° NNW 20:15:25 39° W 20:18:59 21° SSW visible
31 May 5.5 18:51:03 10° NNE 18:56:44 36° E 19:01:36 13° SSE visible
31 May 7.4 20:37:57 10° NW 20:41:52 17° W 20:45:44 10° SW visible
01 Jun 4.9 19:16:54 10° N 19:23:12 82° E 19:29:05 12° S visible
02 Jun 6.0 19:43:43 10° NNW 19:49:38 45° W 19:55:29 10° SSW visible
03 Jun 5.7 18:25:28 10° NNE 18:30:57 32° E 18:36:20 10° SSE visible
03 Jun 7.3 20:11:45 10° NW 20:16:04 20° W 20:20:21 10° SW visible
04 Jun 4.9 18:51:10 10° N 18:57:24 73° E 19:03:33 10° S visible
